Location: Gad�tanya
(48.0500°N, 20.8500°E)
Time: 11:48:36
(UTC+00:00)

RESURS DK-1 - Pass Details

Date: 05 July 2020
Orbit: 555 x 562 km, 69.9° (Epoch: 14 August)

Event Time Altitude Azimuth Distance (km) Brightness Sun altitude
Rises 22:34:29 0° 336° (NNW) 2,753 7.1 -19.3°
Reaches altitude 10° 22:36:51 10° 346° (NNW) 1,855 6.2 -19.3°
Maximum altitude 22:40:39 34° 52° (NE) 932 3.8 -19.3°
Enters shadow 22:43:22 16° 111° (ESE) 1,478 4.3 -19.3°
